EW5295 Weather Reports


time (UTC)temp
F
wind
direction
speed
knots
gust
knots
rain 1hr
in
rain 24hr
in
rain mn
in
humidity
%
barometer
mb
20260502203005 61 122 0.0 2.6 0.00 0.00 0.00 74 1013.6
20260502193051 57 163 0.0 1.7 0.00 0.00 0.00 81 1014.1
20260502191523 55 209 0.0 1.7 0.00 0.00 0.00 86 1014.5
20260502190056 54 129 0.0 0.0 0.00 0.00 0.00 88 1014.9
20260502184540 53 146 0.0 0.9 0.00 0.00 0.00 87 1014.8
20260502184518 53 146 0.0 0.9 0.00 0.00 0.00 86 1014.8
20260502183050 53 146 0.0 0.0 0.00 0.00 0.00 84 1014.7
20260502163109 53 224 0.0 1.7 0.00 0.00 0.00 83 1015.2
20260502151523 50 141 0.0 1.7 0.00 0.00 0.00 87 1014.8
20260502123011 46 153 0.0 0.0 0.00 0.00 0.00 90 1014.8
20260502121549 46 153 0.0 0.0 0.00 0.00 0.00 91 1014.8
20260502121504 46 153 0.0 0.0 0.00 0.00 0.00 91 1014.8
20260502114504 46 153 0.0 0.0 0.00 0.00 0.00 90 1014.9
20260502110018 47 153 0.0 0.0 0.00 0.00 0.00 87 1014.6
20260502103044 48 153 0.0 0.0 0.00 0.00 0.00 85 1014.7
20260502101606 48 153 0.0 0.9 0.00 0.00 0.00 85 1014.7
20260502101535 48 153 0.0 0.9 0.00 0.00 0.00 85 1014.7
20260502071531 52 148 0.0 0.9 0.00 0.00 0.00 76 1015.5
20260502063030 53 193 0.0 1.7 0.00 0.00 0.00 75 1015.6
20260502061527 53 131 0.0 0.9 0.00 0.00 0.00 75 1015.5
20260502060020 54 122 0.0 0.9 0.00 0.00 0.00 74 1015.4
20260502054503 54 136 0.0 0.0 0.00 0.00 0.00 74 1015.3
20260502051602 55 136 0.0 0.9 0.00 0.00 0.00 72 1015.3
20260502050047 56 85 0.0 0.9 0.00 0.00 0.00 71 1015.1
20260502050004 56 168 0.0 0.9 0.00 0.00 0.00 71 1015.1
20260502040011 57 126 0.0 2.6 0.00 0.00 0.00 68 1014.4
20260502034545 58 80 0.0 3.5 0.00 0.00 0.00 68 1014.2
20260502033014 59 133 0.0 0.9 0.00 0.00 0.00 68 1014.0
20260502031600 60 115 0.0 2.6 0.00 0.00 0.00 67 1013.9
20260502031515 60 115 0.0 2.6 0.00 0.00 0.00 67 1013.9
20260502024543 63 84 0.0 0.9 0.00 0.00 0.00 63 1013.5
20260502021557 66 245 0.0 3.5 0.00 0.00 0.00 57 1013.1
20260502011503 72 124 0.0 0.0 0.00 0.00 0.00 50 1012.9
20260502010019 72 179 0.0 0.9 0.00 0.00 0.00 50 1012.9
20260502004509 73 172 0.0 0.0 0.00 0.00 0.00 47 1012.9
20260502003036 73 335 0.0 0.9 0.00 0.00 0.00 50 1012.9
20260502000038 73 335 0.0 0.9 0.00 0.00 0.00 48 1012.9
20260501234509 73 124 0.0 0.9 0.00 0.00 0.00 46 1013.0
20260501233039 73 168 0.0 0.0 0.00 0.00 0.00 46 1013.0
20260501224527 74 156 0.0 0.9 0.00 0.00 0.00 47 1013.5
20260501223042 73 185 0.0 1.7 0.00 0.00 0.00 46 1013.7
20260501221529 73 204 0.0 1.7 0.00 0.00 0.00 49 1013.8
20260501220017 72 120 0.0 0.9 0.00 0.00 0.00 47 1013.9
20260501214544 73 147 0.0 2.6 0.00 0.00 0.00 47 1014.1
20260501214531 73 146 0.0 2.6 0.00 0.00 0.00 47 1014.1
20260501213001 73 330 0.0 0.9 0.00 0.00 0.00 48 1014.2
20260501211527 71 338 0.0 2.6 0.00 0.00 0.00 51 1014.4
20260501211504 71 338 0.0 2.6 0.00 0.00 0.00 52 1014.4